{"data":{"norad_id":67923,"intl_designator":"2026-036V","name":"STARLINK-36406","alt_names":[],"object_type":"PAYLOAD","status":"ACTIVE","operator":null,"country":"US","launch_date":"2026-02-22","launch_site_code":"AFETR","launch_vehicle":null,"mission":null,"orbit_class":"UNKNOWN","rcs_meters":null,"size_class":null,"mass_kg":null,"dimensions":null,"purposes":["comms"],"wikipedia_slug":null,"has_3d_model":false,"image_url":null,"decayed_at":null,"tle_current":{"epoch":"2026-09-19T07:45:01.161504Z","epoch_age_seconds":164950,"freshness":"FRESH","line1":"1 67923U 26036V   26262.32293011  .00007117  00000+0  26787-3 0  9991","line2":"2 67923  43.0005 231.9315 0001405 266.5023  93.5668 15.27583227 33330","mean_motion":15.27583227,"eccentricity":0.0001405,"inclination_deg":43.0005,"raan_deg":231.9315,"arg_perigee_deg":266.5023,"mean_anomaly_deg":93.5668,"bstar":0.00026787,"rev_number":3333,"period_min":94.266549576352,"perigee_km":482.07543796888,"apogee_km":484.00342854663,"semimajor_km":6861.1764332578,"source":"CELESTRAK","updated_at":"2026-09-20T09:00:43.704618Z"}}}